Location: LDNL
(36.4545°S, 141.6685°E)
Time: 00:55:24
(UTC+10:00)

Courier 1B Rocket - Pass Details

Date: 15 August 2022
Orbit: 920 x 1202 km, 28.2° (Epoch: 26 September)

Event Time Altitude Azimuth Distance (km) Brightness Sun altitude
Exits shadow 04:02:51 34° 44° (NE) 1,851 6.5 -39.4°
Drops below altitude 10° 04:07:56 10° 78° (ENE) 3,102 8.2 -38.4°
Sets 04:10:55 0° 85° (E) 4,038 9.1 -37.8°
